CDT,Max TemperatureF,Mean TemperatureF,Min TemperatureF,Max Dew PointF,MeanDew PointF,Min DewpointF,Max Humidity, Mean Humidity, Min Humidity, Max Sea Level PressureIn, Mean Sea Level PressureIn, Min Sea Level PressureIn, Max VisibilityMiles, Mean VisibilityMiles, Min VisibilityMiles, Max Wind SpeedMPH, Mean Wind SpeedMPH, Max Gust SpeedMPH,PrecipitationIn, CloudCover, Events, WindDirDegrees
2012-8-1,100,88,76,73,70,66,94,65,35,29.90,29.85,29.80,10,9,5,15,6,20,0.00,0,,260
2012-8-2,101,86,71,73,70,66,93,66,38,29.87,29.81,29.74,10,10,8,16,5,20,T,1,Thunderstorm,234
2012-8-3,96,86,76,75,72,70,82,67,52,29.84,29.81,29.78,10,10,10,15,6,18,0.00,3,,182
2012-8-4,93,86,78,77,75,72,91,74,56,30.02,29.91,29.84,10,10,2,16,7,23,0.19,1,Rain,199
2012-8-5,93,85,76,76,73,70,91,72,52,30.09,30.04,29.98,10,9,7,16,5,,0.01,3,Rain,270
2012-8-6,96,81,66,68,60,51,79,51,23,30.10,30.04,29.96,10,10,10,14,4,18,0.00,1,,33
2012-8-7,98,81,63,65,56,44,87,52,17,30.00,29.96,29.90,10,10,10,10,3,22,0.00,0,,57
2012-8-8,100,82,63,66,60,57,84,55,26,29.98,29.93,29.86,10,10,10,13,3,17,0.00,0,,243
2012-8-9,96,83,70,70,66,59,84,57,30,29.87,29.80,29.73,10,10,3,18,5,24,0.01,2,,237
2012-8-10,86,75,63,70,59,52,84,58,32,29.94,29.85,29.75,10,10,10,20,9,28,0.00,3,,349
2012-8-11,87,73,59,57,49,40,84,52,20,30.02,29.97,29.93,10,10,10,14,3,18,0.00,0,,359
2012-8-12,87,70,53,62,52,47,89,58,27,30.05,30.00,29.95,10,10,10,14,3,17,T,0,,244
2012-8-13,87,77,67,72,65,56,100,78,55,29.93,29.88,29.81,10,8,0,23,8,29,0.99,6,Fog-Rain-Thunderstorm,136
2012-8-14,81,74,66,66,63,59,93,72,51,29.99,29.95,29.88,10,8,4,14,6,17,0.00,4,,341
2012-8-15,90,76,61,64,59,55,93,63,32,30.01,29.96,29.91,10,10,7,12,4,16,0.00,1,,132
2012-8-16,97,84,70,70,66,61,79,58,36,29.99,29.92,29.77,10,8,0,43,8,59,1.42,3,Fog-Rain-Thunderstorm,240
2012-8-17,81,72,62,65,57,32,90,66,42,30.02,29.97,29.93,10,9,3,13,4,16,T,5,,354
2012-8-18,84,70,55,57,53,47,93,62,30,30.00,29.94,29.88,10,10,10,13,3,23,0.00,0,,49
2012-8-19,86,72,57,59,53,47,93,60,27,29.94,29.90,29.87,10,10,9,14,3,17,T,2,Rain,11
2012-8-20,86,73,60,60,54,47,93,61,28,29.99,29.95,29.93,10,10,10,12,3,16,0.00,3,,77
2012-8-21,89,73,56,58,54,50,93,61,28,30.05,30.01,29.97,10,10,10,12,2,15,0.00,1,,289
2012-8-22,94,77,59,60,54,47,84,52,20,30.07,30.03,29.98,10,10,10,12,4,17,0.00,0,,271
2012-8-23,95,77,58,61,56,50,93,58,23,30.07,30.02,29.98,10,10,7,9,3,13,0.00,0,,43
2012-8-24,93,79,65,64,59,54,78,53,28,30.07,30.02,29.98,10,10,10,12,4,15,0.00,1,,234
2012-8-25,89,78,66,66,63,61,87,64,41,30.05,30.02,29.99,10,10,7,15,7,28,0.00,1,,178
2012-8-26,93,82,71,70,67,64,84,63,41,30.11,30.04,29.96,10,9,2,18,5,22,0.06,4,Rain,196
2012-8-27,91,82,72,72,70,67,93,71,49,30.05,30.00,29.96,10,10,8,17,5,22,0.00,3,,241
2012-8-28,93,79,64,71,59,51,93,60,26,30.06,30.00,29.95,10,10,7,18,7,26,0.00,1,,47
2012-8-29,93,78,62,62,58,51,78,51,24,30.00,29.96,29.89,10,10,10,17,6,23,0.00,0,,60
2012-8-30,94,80,65,70,65,59,81,63,44,30.02,29.96,29.92,10,10,10,16,8,22,0.00,0,,113
2012-8-31,92,85,78,73,71,68,79,63,47,30.06,29.99,29.90,10,10,4,21,12,31,0.07,4,Rain-Thunderstorm,153